Weather History for KPIL - December, 2012

Change the Weather History Date:

Sunday, December 30, 2012

  Actual Average Record
Temperature  
Mean Temperature 58 °F -  
Max Temperature 72 °F - - ()
Min Temperature 45 °F - - ()
Degree Days  
Heating Degree Days 6    
Growing Degree Days 8 (Base 50)    
Moisture  
Dew Point 44 °F    
Average Humidity 56    
Maximum Humidity 70    
Minimum Humidity 41    
Precipitation  
Precipitation 0.00 in - - ()
Sea Level Pressure  
Sea Level Pressure 30.27 in    
Wind  
Wind Speed 9 mph (East)    
Max Wind Speed 16 mph    
Max Gust Speed -    
Visibility 10 miles    
Events      
T = Trace of Precipitation, MM = Missing Value Source: NWS Daily Summary

Daily Weather History Graph

Daily Weather History Graph

Search for Another Location

Airport or City:

Trip Planner

Search our weather history database for the weather conditions in past years. The results will help you decide how hot, cold, wet, or windy it might be!

Date:

Astronomy

Dec. 30, 2012 Rise Set
Actual Time 7:16 AM CST 5:48 PM CST
Civil Twilight 6:51 AM CST 6:13 PM CST
Nautical Twilight 6:22 AM CST 6:42 PM CST
Astronomical Twilight 5:54 AM CST 7:10 PM CST
Moon 8:05 PM CST (12/30) 8:39 AM CST (12/30)
Length of Visible Light 11h 22m
Length of Day
10h 31m
Waning Gibbous, 95% of the Moon is Illuminated
Dec 30
Waning Gibbous
Jan 4
Last Quarter
Jan 11
New
Jan 18
First Quarter
Jan 26
Full

Hourly Weather History & Observations

Time (CST) Temp. Windchill Dew Point Humidity Pressure Visibility Wind Dir Wind Speed Gust Speed Precip Events Conditions
12:53 AM 48.9 °F - 26.1 °F 41% 30.40 in 10.0 mi NW 9.2 mph - N/A   Overcast
1:53 AM 46.9 °F - 25.0 °F 42% 30.39 in 10.0 mi NW 6.9 mph - N/A   Clear
2:53 AM 46.0 °F 42.5 °F 25.0 °F 44% 30.37 in 10.0 mi NW 6.9 mph - N/A   Clear
3:53 AM 46.0 °F 41.4 °F 27.0 °F 47% 30.36 in 10.0 mi NW 9.2 mph - N/A   Clear
4:53 AM 46.9 °F - 30.0 °F 52% 30.34 in 10.0 mi NNW 9.2 mph - N/A   Mostly Cloudy
5:53 AM 45.0 °F 41.8 °F 30.9 °F 58% 30.34 in 10.0 mi NW 5.8 mph - N/A   Clear
6:53 AM 45.0 °F 40.6 °F 30.0 °F 56% 30.35 in 10.0 mi NW 8.1 mph - N/A   Clear
7:53 AM 46.0 °F 43.1 °F 33.1 °F 61% 30.35 in 10.0 mi NNW 5.8 mph - N/A   Overcast
8:53 AM 52.0 °F - 37.0 °F 57% 30.35 in 10.0 mi NNW 4.6 mph - N/A   Overcast
9:53 AM 55.9 °F - 39.9 °F 55% 30.35 in 10.0 mi NW 4.6 mph - N/A   Overcast
10:53 AM 68.0 °F - 48.0 °F 49% 30.33 in 10.0 mi ESE 10.4 mph - N/A   Clear
11:53 AM 72.0 °F - 50.0 °F 46% 30.31 in 10.0 mi ESE 12.7 mph - N/A   Clear
12:53 PM 69.1 °F - 50.0 °F 51% 30.27 in 10.0 mi ESE 16.1 mph - N/A   Overcast
1:53 PM 71.1 °F - 50.0 °F 47% 30.24 in 10.0 mi ESE 15.0 mph - N/A   Overcast
2:53 PM 70.0 °F - 52.0 °F 53% 30.21 in 10.0 mi ESE 15.0 mph - N/A   Mostly Cloudy
3:53 PM 69.1 °F - 52.0 °F 54% 30.19 in 10.0 mi ESE 11.5 mph - N/A   Overcast
4:53 PM 68.0 °F - 54.0 °F 61% 30.19 in 9.0 mi ESE 10.4 mph - N/A   Overcast
5:53 PM 66.9 °F - 55.0 °F 66% 30.17 in 10.0 mi ESE 11.5 mph - N/A   Overcast
6:53 PM 66.9 °F - 55.9 °F 68% 30.17 in 10.0 mi ESE 9.2 mph - N/A   Overcast
7:53 PM 68.0 °F - 55.9 °F 65% 30.17 in 10.0 mi SE 11.5 mph - N/A   Overcast
8:53 PM 68.0 °F - 57.0 °F 68% 30.17 in 10.0 mi SE 11.5 mph - N/A   Overcast
9:53 PM 69.1 °F - 57.0 °F 65% 30.17 in 10.0 mi SE 12.7 mph - N/A   Overcast
10:53 PM 70.0 °F - 57.9 °F 65% 30.16 in 10.0 mi SSE 15.0 mph - N/A   Overcast
11:53 PM 69.1 °F - 59.0 °F 70% 30.14 in 10.0 mi SSE 11.5 mph - N/A   Overcast